Location: Unspecified
(0.0000°N, 0.0000°E)
Time: 22:55:59
(UTC+00:00)

Vanguard 3 - All Passes

Search period start: 19 November 2019 00:00
Search period end: 29 November 2019 00:00
Orbit: 508 x 3263 km, 33.4° (Epoch: 18 November)

Date Brightness Start Highest point End Pass type
(mag) Time Alt. Az. Time Alt. Az. Time Alt. Az.
19 Nov - 07:46:01 10° SSW 07:54:04 28° SE 08:06:08 10° E daylight
19 Nov - 09:55:58 10° SW 10:08:23 83° SE 10:27:53 10° NE daylight
19 Nov - 12:10:27 10° W 12:25:44 45° NNW 12:44:21 10° NE daylight
19 Nov - 14:32:50 10° WNW 14:46:09 21° NNW 14:58:38 10° NNE daylight
19 Nov - 17:01:08 10° NNW 17:08:16 13° N 17:14:19 10° NNE daylight
19 Nov - 19:19:05 10° NNW 19:27:17 20° NNE 19:33:05 10° ENE visible
19 Nov - 21:33:28 10° NW 21:42:03 60° NNE 21:47:03 10° ESE visible
19 Nov - 23:50:24 10° WSW 23:53:22 15° SW 23:55:51 10° S night (unlit)
20 Nov - 06:35:43 10° SSE 06:39:03 12° SE 06:42:58 10° ESE daylight
20 Nov - 08:42:26 10° SW 08:52:33 55° SE 09:09:21 10° ENE daylight
20 Nov - 10:54:31 10° WSW 11:08:09 63° NNW 11:27:47 10° NE daylight
20 Nov - 13:12:33 10° WNW 13:27:15 29° NNW 13:43:02 10° NNE daylight
20 Nov - 15:39:17 10° NW 15:49:20 16° N 15:58:09 10° NNE daylight
20 Nov - 18:02:07 10° NNW 18:10:29 16° N 18:16:56 10° NE visible
20 Nov - 20:17:25 10° NW 20:27:16 35° NNE 20:33:12 10° E visible
20 Nov - 22:32:59 10° WNW 22:39:58 45° SW 22:44:21 10° SE night (unlit)
21 Nov - 07:29:52 10° SSW 07:37:32 30° SE 07:49:29 10° E daylight
21 Nov - 09:39:55 10° SW 09:51:27 88° NW 10:10:24 10° NE daylight
21 Nov - 11:54:39 10° W 12:08:54 40° NNW 12:26:54 10° NE daylight
21 Nov - 14:17:16 10° NW 14:29:56 20° NNW 14:42:06 10° NNE daylight
21 Nov - 16:43:28 10° NNW 16:52:30 15° N 16:59:58 10° NE daylight
21 Nov - 19:01:01 10° NNW 19:11:30 26° NNE 19:18:26 10° ENE visible
21 Nov - 21:16:23 10° NW 21:26:08 79° NE 21:31:33 10° ESE visible
21 Nov - 23:35:11 10° WSW 23:37:22 12° SW 23:39:16 10° SSW night (unlit)
22 Nov - 06:19:14 10° SSE 06:22:54 13° SE 06:27:24 10° ESE daylight
22 Nov - 08:26:24 10° SW 08:35:47 62° SE 08:52:06 10° ENE daylight
22 Nov - 10:38:40 10° WSW 10:51:19 55° NNW 11:10:10 10° NE daylight
22 Nov - 12:57:03 10° WNW 13:10:45 26° NNW 13:25:52 10° NNE daylight
22 Nov - 15:22:57 10° NW 15:33:26 16° N 15:42:44 10° NNE daylight
22 Nov - 17:43:58 10° NNW 17:54:41 20° NNE 18:02:32 10° ENE daylight
22 Nov - 19:59:49 10° NW 20:11:23 46° NNE 20:17:59 10° E visible
22 Nov - 22:16:33 10° WNW 22:23:53 37° SW 22:28:30 10° SSE visible
23 Nov - 07:13:48 10° SSW 07:21:02 34° SE 07:32:45 10° E daylight
23 Nov - 09:24:02 10° WSW 09:34:41 77° NW 09:52:48 10° NE daylight
23 Nov - 11:39:05 10° W 11:52:15 35° NNW 12:09:21 10° NE daylight
23 Nov - 14:01:45 10° NW 14:13:48 19° N 14:25:39 10° NNE daylight
23 Nov - 16:25:51 10° NNW 16:36:40 18° N 16:45:27 10° NE daylight
23 Nov - 18:43:04 10° NW 18:55:36 32° NNE 19:03:28 10° E visible
23 Nov - 20:59:16 10° NW 21:10:05 83° SW 21:15:58 10° SE visible
23 Nov - 23:20:48 10° SW 23:21:20 10° SW 23:21:51 10° SW night (unlit)
24 Nov - 06:02:51 10° S 06:06:44 15° SE 06:11:41 10° ESE daylight
24 Nov - 08:10:27 10° SW 08:19:08 70° SE 08:34:46 10° ENE daylight
24 Nov - 10:22:59 10° W 10:34:40 47° NNW 10:52:26 10° NE daylight
24 Nov - 12:41:45 10° WNW 12:54:23 23° NNW 13:08:41 10° NNE daylight
24 Nov - 15:06:25 10° NW 15:17:32 17° N 15:27:28 10° NE daylight
24 Nov - 17:25:56 10° NNW 17:38:45 25° NNE 17:47:48 10° ENE daylight
24 Nov - 19:42:13 10° NW 19:55:20 59° NNE 20:02:34 10° ESE visible
24 Nov - 22:00:08 10° W 22:07:44 31° SW 22:12:36 10° SSE visible
25 Nov - 06:57:48 10° SSW 07:04:35 38° SE 07:15:57 10° ENE daylight
25 Nov - 09:08:17 10° WSW 09:18:06 67° NNW 09:35:07 10° NE daylight
25 Nov - 11:23:43 10° WNW 11:35:48 30° NNW 11:51:42 10° NNE daylight
25 Nov - 13:46:14 10° NW 13:57:45 18° N 14:09:20 10° NNE daylight
25 Nov - 16:08:13 10° NNW 16:20:43 20° NNE 16:30:44 10° NE daylight
25 Nov - 18:25:09 10° NW 18:39:32 40° NNE 18:48:17 10° E visible
25 Nov - 20:42:10 10° WNW 20:53:53 68° SW 21:00:16 10° SE visible
26 Nov - 05:46:33 10° S 05:50:33 16° SE 05:55:50 10° ESE daylight
26 Nov - 07:54:38 10° SW 08:02:38 81° SE 08:17:22 10° ENE daylight
26 Nov - 10:07:30 10° W 10:18:12 40° NNW 10:34:37 10° NE daylight
26 Nov - 12:26:36 10° NW 12:38:12 21° NNW 12:51:29 10° NNE daylight
26 Nov - 14:49:44 10° NNW 15:01:35 18° N 15:12:18 10° NE daylight
26 Nov - 17:07:59 10° NNW 17:22:39 30° NNE 17:32:48 10° ENE daylight
26 Nov - 19:24:37 10° NW 19:39:09 72° NNE 19:47:03 10° ESE visible
26 Nov - 21:43:44 10° W 21:51:31 27° SW 21:56:36 10° SSE visible
27 Nov - 06:41:52 10° SSW 06:48:12 44° SE 06:59:07 10° ENE daylight
27 Nov - 08:52:41 10° WSW 09:01:41 56° NNW 09:17:22 10° NE daylight
27 Nov - 11:08:33 10° WNW 11:19:30 26° NNW 11:33:59 10° NNE daylight
27 Nov - 13:30:37 10° NW 13:41:46 18° N 13:53:11 10° NE daylight
27 Nov - 15:50:37 10° NNW 16:04:37 24° NNE 16:15:49 10° ENE daylight
27 Nov - 18:07:17 10° NW 18:23:18 48° NNE 18:32:53 10° E visible
27 Nov - 20:25:04 10° WNW 20:37:34 58° SW 20:44:29 10° SE visible
28 Nov - 05:30:21 10° S 05:34:23 18° SE 05:39:54 10° E daylight
28 Nov - 07:38:55 10° SW 07:46:16 86° NW 07:59:57 10° NE daylight
28 Nov - 09:52:12 10° W 10:01:55 34° NNW 10:16:43 10° NE daylight
28 Nov - 12:11:35 10° NW 12:22:08 19° N 12:34:19 10° NNE daylight
28 Nov - 14:32:56 10° NNW 14:45:33 20° N 14:57:08 10° NE daylight
28 Nov - 16:50:07 10° NW 17:06:22 35° NNE 17:17:35 10° E daylight
28 Nov - 19:07:03 10° NW 19:22:46 84° NE 19:31:23 10° ESE visible
28 Nov - 21:27:23 10° W 21:35:16 24° SW 21:40:34 10° S visible
